Starlink 1765

operational
NORAD ID: 46344 Int'l Des: 2020-062 Owner: SPXS Country: US Constellation: starlink
LEOCIRCULARSTARLINK_TYPE

关于 Starlink 1765

正在加载描述...

实时位置

正在加载3D地球...

即将过境

高度历史

Altitude vs Time

uPlot chart will show altitude changes over time

两行轨道根数

1 46344U 20062V 25257.50876179 -.00000241 00000-0 27258-5 0 9992
2 46344 53.0557 67.5237 0001392 93.8363 266.2785 15.06396675278039
Epoch: Sep 14, 2025 • Age: 19 hours

当前状态

高度 552.6 km
速度 7.59 km/s
星下点 52.17°N, 28.66°E
发射日期 Sep 3, 2020
运行时间 5 years
类型 internet

技术详情

分类 Payload
质量 260.00 kg
干质量 248.00 kg
总质量 260.00 kg
长度 0.20 m
直径 2.80 m
跨度 9.00 m
形状 Box + pan
制造商 SPXS
平台类型 Starlink
阶段状态 In Orbit
所有者/国家 SPXS/US

大型星座

Loading constellations...